Location: Bluff Heights
(33.7692°N, 118.1592°W)
Time: 11:11:46
(UTC+00:00)

Transit 4A - Visible Passes

Search period start: 03 August 2021 00:00
Search period end: 13 August 2021 00:00
Orbit: 872 x 972 km, 66.8° (Epoch: 02 August)

Date Brightness Start Highest point End Pass type
(mag) Time Alt. Az. Time Alt. Az. Time Alt. Az.
03 Aug 9.4 07:33:16 31° N 07:33:16 31° N 07:36:31 10° NNE visible
04 Aug 9.9 05:58:24 14° NE 05:58:24 14° NE 05:59:17 10° NE visible
04 Aug 9.5 07:41:53 27° NNW 07:41:53 27° NNW 07:45:28 10° N visible
05 Aug 9.5 06:06:56 22° NE 06:06:56 22° NE 06:08:55 10° NE visible
05 Aug 9.8 07:50:24 21° NW 07:50:24 21° NW 07:54:11 10° N visible
06 Aug 9.1 06:15:23 31° NNE 06:15:23 31° NNE 06:18:19 10° NNE visible
06 Aug 10.2 07:58:50 14° NW 07:59:29 14° NW 08:02:26 10° NNW visible
07 Aug 8.8 06:23:41 41° N 06:23:41 41° N 06:27:33 10° NNE visible
08 Aug 9.6 04:48:23 16° ENE 04:48:23 16° ENE 04:49:47 10° NE visible
08 Aug 9.0 06:31:49 39° NW 06:31:49 39° NW 06:36:37 10° N visible
09 Aug 8.8 04:56:15 30° ENE 04:56:15 30° ENE 04:59:37 10° NE visible
09 Aug 9.5 06:39:39 26° WNW 06:40:36 27° NW 06:45:28 10° N visible
10 Aug 7.7 05:03:37 64° E 05:03:37 64° E 05:09:10 10° NNE visible
10 Aug 10.1 06:46:59 12° W 06:50:09 18° NW 06:54:04 10° N visible
11 Aug 9.5 03:26:34 11° ESE 03:27:06 11° ESE 03:28:32 10° E visible
11 Aug 7.7 05:09:46 32° SSW 05:12:38 82° WNW 05:18:30 10° NNE visible
11 Aug 10.5 06:57:40 10° WNW 06:59:50 12° NW 07:01:59 10° NNW visible
12 Aug 9.0 03:32:09 10° SSE 03:36:07 19° ESE 03:40:03 10° ENE visible
12 Aug 8.4 05:16:12 10° SW 05:21:58 53° WNW 05:27:40 10° NNE visible
12 Aug 11.0 12:39:08 10° NNE 12:41:14 12° NE 12:43:20 10° ENE visible
